Wind_Speed
43 42 41 40 40 40 40 39 39 38 39 39 38 38 38 37 37 37 37 37 36 36 37 37 36 36 35 35 36 36 36 35 34 32 31 30 29 28 28 27 27 27 26
44 44 44 44 44 44 43 42 41 41 40 40 40 39 40 40 41 42 42 44 43 42 42 42 42 41 41 41 41 41 41 41 39 37 36 35 33 32 31 30 29 29 28
47 47 47 47 47 47 46 45 45 45 44 44 44 43 43 43 42 41 41 42 43 44 45 45 45 45 45 45 45 45 44 43 42 41 41 39 37 35 34 33 32 31 30
53 53 53 53 53 52 51 50 49 49 48 48 48 47 47 46 46 45 44 44 43 43 44 44 44 43 42 42 43 43 43 45 46 45 44 43 42 39 37 36 34 33 31
60 59 59 59 59 59 58 57 55 54 54 53 52 52 51 51 50 49 48 48 47 47 47 48 48 47 46 45 44 43 43 43 45 46 46 45 44 43 40 38 36 35 33
63 64 65 65 64 64 63 63 62 61 61 60 59 58 57 56 55 54 54 53 52 52 52 52 52 51 51 50 50 49 48 47 46 46 45 45 45 45 44 42 39 38 37
62 63 65 68 68 67 67 67 66 66 66 66 65 63 63 61 59 59 59 58 57 56 55 55 55 55 54 54 53 52 51 50 48 47 46 46 46 45 44 44 43 41 40
66 65 65 66 67 67 67 67 67 66 66 66 67 67 66 66 65 64 63 61 60 59 58 58 57 57 57 55 53 53 52 51 50 48 46 46 46 46 45 45 44 43 42
73 72 71 70 71 70 70 69 68 67 65 63 64 65 66 67 66 66 65 64 63 62 60 60 60 60 59 57 55 54 54 54 52 51 49 48 48 48 48 48 48 47 47
77 79 78 77 76 76 76 75 74 72 71 67 65 65 65 64 64 64 64 64 62 62 62 61 60 59 58 54 53 53 54 54 52 51 50 50 51 51 52 51 50 52 53
78 80 82 82 81 80 80 80 78 77 77 74 72 70 67 66 64 63 62 62 62 63 63 63 62 62 60 56 54 51 51 53 54 54 54 54 53 53 54 54 55 56 57
74 77 80 82 82 83 81 81 81 80 80 77 75 75 73 72 71 69 67 66 65 64 64 64 64 64 64 62 61 59 58 57 55 56 57 58 59 58 59 59 58 57 58
65 71 75 77 77 76 73 75 78 78 79 78 76 75 76 74 73 73 72 72 71 69 68 67 67 66 66 66 64 63 64 62 60 59 59 59 60 61 61 61 60 59 58
65 67 68 68 69 66 58 59 63 70 75 77 74 72 73 72 71 72 73 74 74 73 71 69 68 68 67 66 67 67 66 64 63 62 61 60 59 59 59 60 60 60 60
57 61 67 68 63 60 64 59 54 56 62 70 67 64 67 70 73 72 72 71 71 71 71 69 68 66 65 65 65 64 65 64 63 60 59 59 59 59 58 57 57 59 60
47 46 49 65 68 62 57 57 54 51 52 57 56 53 56 60 65 63 63 65 67 66 66 66 67 65 62 63 63 64 63 63 62 61 59 58 58 58 57 56 56 57 55
39 39 39 46 63 66 56 48 46 40 39 47 52 49 52 50 53 56 56 58 61 62 64 64 62 62 61 61 62 63 62 61 61 61 61 59 58 57 55 55 57 58 56
32 29 30 32 41 56 60 56 56 54 48 48 51 50 52 53 57 56 56 58 59 60 62 64 63 64 62 61 62 63 64 63 61 60 60 59 59 58 56 56 58 59 59
27 25 24 24 30 44 49 52 54 57 59 52 50 49 51 55 61 62 61 59 59 59 56 57 56 55 56 56 57 59 59 61 60 59 58 57 57 57 58 58 58 59 61
24 24 21 19 23 31 38 43 45 48 50 51 51 49 44 45 51 52 52 54 53 52 53 54 55 53 53 54 55 55 56 59 60 60 59 59 59 59 58 58 59 59 59
22 21 15 16 24 30 32 35 39 41 43 48 48 45 40 37 42 45 48 51 51 48 48 51 55 55 56 56 57 56 56 58 60 59 60 63 63 62 62 62 59 57 55
21 20 15 15 20 29 35 34 36 35 36 41 40 36 34 36 39 41 44 46 45 45 47 49 50 53 55 56 58 59 57 57 60 59 60 60 57 58 58 58 57 57 56
21 20 16 18 18 22 32 37 38 35 34 35 34 34 33 37 41 42 43 43 44 45 46 47 47 49 52 55 58 59 56 57 58 56 51 49 50 56 58 58 56 56 54
25 22 19 21 22 19 21 30 35 34 33 32 31 33 36 38 40 41 42 43 43 45 47 49 49 47 47 50 56 58 56 54 51 50 46 46 46 47 50 50 49 49 49
29 27 25 25 26 25 23 25 29 30 31 30 32 33 37 40 39 41 43 44 44 46 48 50 51 50 48 47 48 53 55 54 49 46 46 45 44 44 44 45 46 46 48
32 32 31 30 31 31 30 30 31 33 34 35 36 37 38 40 40 39 40 42 41 42 43 46 48 49 49 49 49 47 48 51 49 46 43 42 42 43 44 45 44 43 45
Wind_Direction
261 260 258 254 252 252 253 253 253 253 253 253 253 253 253 251 249 250 251 250 249 249 250 251 252 252 254 257 259 260 261 263 265 266 265 264 263 262 260 257 256 255 255
259 260 259 258 257 255 255 255 256 256 256 256 256 256 256 254 252 252 252 253 253 253 253 254 255 255 257 259 259 260 260 261 263 265 266 265 264 263 262 261 260 257 254
259 258 258 258 257 256 255 254 253 253 254 255 256 255 255 254 254 253 253 254 254 254 255 256 257 257 257 258 259 259 259 261 262 263 264 265 265 264 264 263 262 262 257
262 260 258 257 256 255 254 254 254 254 254 254 255 255 256 255 254 253 252 253 254 255 256 256 257 256 257 257 259 259 260 260 261 261 261 261 262 262 263 263 262 262 261
264 262 260 257 255 254 253 253 253 254 255 255 255 255 255 256 254 254 253 253 253 254 255 257 257 257 256 256 257 259 261 262 263 263 263 261 260 260 260 260 261 261 261
264 263 261 259 257 255 254 253 252 253 253 253 253 254 253 252 253 253 254 254 253 253 254 255 257 257 257 256 257 258 260 260 259 260 261 262 261 260 260 259 258 258 259
265 265 264 262 261 259 257 255 254 254 254 254 253 252 251 250 250 250 252 252 253 253 254 255 255 256 256 256 257 258 258 257 255 255 255 256 259 259 258 258 258 258 257
267 264 263 263 262 260 259 257 255 255 254 254 254 253 252 251 249 249 250 250 251 253 254 255 255 255 255 255 256 256 256 255 254 253 251 251 253 256 257 259 260 260 258
266 265 264 263 262 261 259 257 255 254 253 253 254 253 251 250 250 249 248 249 249 250 251 251 252 254 255 254 253 253 254 255 255 253 252 251 252 254 257 259 261 262 261
266 265 263 262 262 261 260 258 256 255 253 252 252 252 251 250 248 247 246 247 247 248 249 249 250 251 252 251 249 249 251 251 250 254 256 255 255 256 257 256 258 260 262
267 265 264 262 261 260 259 258 256 254 253 252 252 251 251 250 248 246 245 244 245 245 247 248 248 248 246 245 245 245 246 246 246 251 253 255 257 258 256 256 255 256 257
265 263 261 260 260 259 258 256 254 253 252 251 251 250 249 249 248 247 246 246 245 245 246 247 248 248 248 246 245 245 247 249 249 249 249 252 255 257 258 257 256 254 254
264 259 256 254 253 255 257 254 252 251 250 249 249 249 248 247 247 247 247 247 247 246 245 246 247 248 248 247 247 247 248 248 248 248 249 252 252 253 255 256 256 255 254
266 261 258 253 248 244 238 248 251 248 247 248 247 247 247 245 245 245 246 247 246 246 246 246 247 247 247 247 247 247 248 251 252 253 254 253 253 253 254 255 255 255 254
281 267 255 249 247 242 237 234 242 247 247 248 246 247 247 245 243 243 244 245 245 245 246 246 247 248 249 248 248 248 249 250 251 251 252 252 253 254 255 254 255 255 255
294 283 265 248 240 239 239 238 247 251 250 246 242 241 244 246 248 247 246 246 246 246 247 247 247 248 249 250 250 250 249 249 248 249 250 251 252 254 254 254 253 254 254
301 291 274 255 237 231 228 227 230 241 245 242 237 237 241 246 248 247 247 247 247 246 246 246 247 247 247 247 246 248 248 247 247 248 248 249 251 251 251 250 248 250 251
307 305 287 262 237 227 225 227 232 228 234 240 235 236 238 241 243 242 244 246 246 248 249 247 250 251 250 250 247 247 248 248 247 247 248 248 248 248 248 247 247 250 253
311 305 297 267 233 222 225 229 231 231 235 236 234 239 242 245 239 243 246 246 246 246 244 244 247 246 248 247 247 248 246 245 245 246 247 246 244 244 243 244 247 251 255
317 307 297 269 233 222 230 232 233 237 237 235 236 240 244 244 242 243 243 242 242 240 240 240 241 244 247 248 248 249 247 244 244 245 245 242 241 241 242 244 248 252 254
310 314 292 260 232 226 227 232 236 237 237 234 234 234 236 238 237 230 231 236 237 237 239 241 244 247 248 248 249 248 247 246 246 245 244 243 242 242 243 245 247 248 249
304 304 286 256 239 234 233 229 230 231 233 232 235 235 236 233 230 228 230 233 238 241 245 247 250 250 249 248 249 247 246 247 246 243 244 244 240 241 242 243 245 246 247
294 297 285 246 254 245 233 225 230 237 237 238 233 233 233 231 229 230 232 238 243 247 251 251 251 250 248 246 245 244 244 246 245 242 242 242 239 240 244 245 245 245 245
281 281 272 259 266 265 241 232 228 232 237 234 231 229 228 229 229 233 235 240 243 249 251 250 246 244 246 245 243 244 244 243 239 238 237 240 240 241 242 242 242 241 238
274 270 267 263 262 261 252 240 231 230 227 229 230 229 228 230 232 235 237 240 243 248 249 247 242 241 244 243 242 241 239 236 235 236 234 236 238 239 241 241 238 237 237
272 264 260 258 256 254 252 248 244 240 237 236 235 234 234 235 237 237 239 240 243 247 246 243 239 240 238 241 245 236 228 229 230 231 233 237 238 239 241 240 239 239 238
Height
5768 5769 5770 5770 5771 5771 5771 5772 5774 5775 5777 5778 5780 5782 5784 5787 5789 5790 5792 5794 5797 5799 5801 5803 5805 5807 5809 5810 5812 5813 5814 5816 5818 5820 5821 5823 5824 5826 5828 5830 5832 5834 5835
5757 5758 5759 5759 5760 5760 5761 5763 5764 5765 5767 5768 5771 5773 5775 5777 5779 5781 5783 5785 5788 5791 5792 5794 5796 5799 5800 5802 5804 5805 5806 5808 5811 5812 5814 5816 5817 5819 5821 5823 5825 5827 5829
5745 5745 5745 5746 5747 5748 5750 5751 5753 5754 5756 5758 5760 5762 5764 5766 5769 5771 5773 5775 5778 5780 5783 5785 5786 5789 5791 5793 5795 5796 5798 5800 5802 5804 5806 5808 5810 5812 5813 5815 5817 5820 5822
5732 5732 5732 5732 5733 5735 5737 5738 5740 5742 5744 5746 5748 5750 5752 5755 5757 5760 5763 5765 5768 5770 5772 5774 5776 5778 5781 5783 5785 5787 5789 5790 5792 5794 5797 5799 5801 5803 5805 5807 5810 5812 5815
5715 5715 5716 5717 5717 5719 5722 5724 5726 5728 5730 5733 5735 5737 5739 5742 5745 5747 5751 5753 5756 5760 5761 5763 5765 5768 5770 5773 5775 5777 5779 5780 5781 5783 5786 5788 5791 5793 5796 5799 5801 5804 5807
5697 5697 5699 5700 5701 5703 5705 5708 5710 5712 5715 5717 5720 5723 5726 5728 5731 5733 5736 5739 5743 5746 5749 5751 5753 5756 5759 5762 5764 5767 5768 5770 5772 5774 5776 5778 5780 5783 5786 5789 5792 5795 5798
5679 5679 5680 5682 5683 5685 5687 5689 5693 5695 5698 5700 5703 5706 5709 5713 5717 5719 5721 5725 5728 5732 5735 5738 5741 5744 5748 5751 5753 5755 5757 5759 5762 5764 5767 5769 5771 5773 5775 5778 5782 5786 5789
5661 5662 5663 5663 5664 5666 5667 5670 5673 5676 5679 5682 5685 5688 5692 5697 5701 5704 5707 5711 5714 5717 5721 5725 5728 5731 5734 5738 5740 5742 5744 5747 5750 5753 5756 5758 5761 5763 5765 5767 5771 5775 5779
5641 5642 5643 5644 5645 5647 5649 5650 5654 5656 5660 5664 5666 5669 5673 5678 5682 5686 5691 5695 5698 5702 5705 5709 5713 5716 5719 5723 5727 5729 5732 5734 5737 5740 5745 5748 5750 5753 5755 5757 5760 5763 5766
5617 5618 5620 5621 5623 5625 5628 5630 5633 5636 5639 5645 5648 5651 5656 5660 5664 5668 5672 5676 5681 5685 5689 5693 5697 5701 5704 5707 5711 5714 5717 5721 5723 5727 5731 5736 5740 5743 5745 5747 5750 5752 5755
5591 5592 5594 5596 5599 5602 5604 5607 5611 5614 5617 5623 5627 5632 5638 5642 5646 5650 5654 5658 5663 5668 5672 5676 5681 5685 5689 5693 5696 5699 5702 5705 5710 5714 5717 5721 5725 5729 5733 5736 5740 5741 5743
5564 5563 5567 5571 5573 5576 5580 5583 5587 5590 5593 5600 5604 5610 5618 5622 5627 5631 5636 5640 5645 5650 5655 5660 5664 5668 5674 5678 5681 5685 5688 5691 5695 5699 5703 5707 5711 5714 5719 5722 5726 5729 5732
5536 5535 5536 5543 5548 5552 5554 5558 5563 5566 5569 5576 5582 5588 5594 5599 5604 5610 5616 5621 5626 5632 5637 5642 5646 5651 5655 5661 5665 5669 5672 5676 5679 5683 5687 5691 5695 5700 5704 5708 5711 5715 5718
5512 5511 5509 5514 5521 5528 5535 5536 5540 5543 5546 5553 5560 5565 5571 5576 5582 5589 5596 5601 5607 5612 5619 5624 5629 5633 5638 5642 5647 5652 5656 5659 5662 5666 5671 5675 5680 5685 5689 5693 5696 5700 5704
5485 5483 5484 5489 5498 5506 5514 5518 5521 5523 5527 5533 5540 5546 5551 5555 5560 5568 5576 5582 5588 5594 5601 5607 5612 5616 5620 5624 5629 5634 5639 5642 5645 5650 5655 5659 5664 5669 5674 5678 5681 5685 5689
5466 5461 5458 5463 5475 5485 5494 5502 5507 5509 5513 5519 5525 5531 5535 5538 5544 5553 5560 5565 5570 5576 5584 5589 5594 5600 5605 5609 5612 5616 5621 5625 5629 5634 5638 5643 5648 5653 5658 5663 5667 5671 5674
5450 5444 5440 5440 5450 5464 5477 5487 5491 5498 5499 5503 5510 5516 5521 5527 5531 5538 5544 5549 5555 5560 5567 5571 5575 5582 5588 5593 5597 5601 5605 5610 5615 5619 5623 5628 5633 5638 5643 5648 5652 5657 5660
5440 5434 5428 5426 5432 5445 5458 5469 5475 5482 5482 5488 5494 5499 5505 5511 5518 5523 5528 5533 5538 5544 5550 5555 5559 5564 5570 5575 5580 5585 5589 5593 5599 5603 5608 5612 5618 5623 5628 5633 5637 5641 5645
5434 5429 5424 5421 5424 5433 5444 5453 5460 5467 5472 5476 5481 5486 5491 5494 5501 5506 5512 5517 5523 5528 5533 5539 5543 5546 5551 5558 5563 5567 5572 5578 5584 5588 5593 5597 5602 5607 5612 5618 5622 5626 5629
5430 5426 5422 5420 5422 5428 5436 5443 5449 5455 5459 5463 5468 5474 5478 5482 5486 5491 5497 5502 5508 5513 5519 5524 5528 5532 5537 5543 5547 5551 5556 5561 5567 5571 5576 5582 5587 5592 5598 5603 5607 5611 5615
5426 5422 5419 5418 5420 5422 5427 5433 5438 5442 5446 5451 5457 5462 5464 5469 5474 5478 5483 5490 5495 5500 5505 5510 5514 5518 5523 5528 5532 5536 5541 5545 5550 5556 5560 5565 5572 5578 5582 5586 5591 5597 5602
5422 5418 5416 5415 5416 5418 5420 5422 5428 5431 5435 5440 5444 5447 5452 5457 5462 5465 5471 5478 5483 5488 5493 5496 5498 5502 5508 5512 5516 5520 5525 5530 5535 5541 5544 5549 5557 5561 5565 5571 5577 5583 5589
5415 5412 5410 5410 5411 5411 5413 5416 5420 5423 5426 5429 5432 5436 5441 5446 5451 5455 5461 5466 5470 5475 5479 5481 5484 5487 5492 5496 5501 5505 5509 5514 5520 5525 5530 5535 5542 5547 5552 5558 5564 5569 5574
5407 5405 5405 5405 5404 5404 5405 5407 5410 5413 5416 5419 5422 5426 5431 5435 5440 5445 5450 5454 5458 5462 5465 5467 5471 5475 5478 5481 5486 5491 5495 5500 5506 5512 5518 5524 5529 5534 5539 5546 5551 5555 5560
5398 5396 5396 5396 5396 5395 5396 5398 5401 5403 5405 5409 5412 5416 5420 5424 5430 5434 5439 5443 5446 5449 5451 5453 5456 5460 5465 5468 5471 5476 5482 5487 5493 5499 5506 5512 5517 5522 5527 5533 5539 5543 5548
5386 5386 5385 5385 5385 5386 5387 5390 5391 5393 5395 5398 5402 5405 5409 5414 5418 5421 5426 5430 5433 5436 5438 5440 5442 5446 5451 5455 5459 5463 5468 5474 5481 5488 5494 5500 5506 5511 5517 5522 5527 5532 5537